,,PressureMeas_1m,,PRMeasQMR101_1,,RHStat155_1m_1,,SRMeasQMS101R_1m,,TAStat155_1m_1,,GenWind_1,,GenWind_1,
2019-10-17, 07:00:07,VALID,917.295,VALID,0.0,VALID,99.919,VALID,107.894,VALID,20.766,VALID,65.0,VALID,0.0,
2019-10-17, 07:01:07,VALID,917.299,VALID,0.0,VALID,99.921,VALID,111.105,VALID,20.745,VALID,82.0,VALID,0.0,
2019-10-17, 07:02:07,VALID,917.298,VALID,0.0,VALID,99.92,VALID,113.188,VALID,20.718,VALID,96.0,VALID,0.0,
2019-10-17, 07:03:07,VALID,917.315,VALID,0.0,VALID,99.919,VALID,114.532,VALID,20.65,VALID,102.0,VALID,0.0,
2019-10-17, 07:04:07,VALID,917.332,VALID,0.0,VALID,99.921,VALID,117.061,VALID,20.673,VALID,102.0,VALID,0.0,
2019-10-17, 07:05:07,VALID,917.352,VALID,0.0,VALID,99.92,VALID,118.742,VALID,20.712,VALID,97.0,VALID,0.0,
2019-10-17, 07:06:07,VALID,917.372,VALID,0.0,VALID,99.917,VALID,121.244,VALID,20.706,VALID,74.0,VALID,0.0,
2019-10-17, 07:07:07,VALID,917.381,VALID,0.0,VALID,99.919,VALID,123.738,VALID,20.638,VALID,73.0,VALID,0.0,
2019-10-17, 07:08:07,VALID,917.389,VALID,0.0,VALID,99.918,VALID,125.439,VALID,20.684,VALID,47.0,VALID,0.0,
2019-10-17, 07:09:07,VALID,917.397,VALID,0.0,VALID,99.918,VALID,127.623,VALID,20.7,VALID,42.0,VALID,0.0,
2019-10-17, 07:10:07,VALID,917.41,VALID,0.0,VALID,99.919,VALID,131.74,VALID,20.7,VALID,25.0,VALID,0.0,
2019-10-17, 07:11:07,VALID,917.423,VALID,0.0,VALID,99.921,VALID,134.59,VALID,20.619,VALID,33.0,VALID,0.0,
2019-10-17, 07:12:07,VALID,917.461,VALID,0.0,VALID,99.922,VALID,136.392,VALID,20.74,VALID,26.0,VALID,0.0,
2019-10-17, 07:13:07,VALID,917.489,VALID,0.0,VALID,99.919,VALID,139.313,VALID,20.638,VALID,29.0,VALID,0.0,
2019-10-17, 07:14:07,VALID,917.508,VALID,0.0,VALID,99.919,VALID,141.248,VALID,20.784,VALID,10.0,VALID,0.0,
2019-10-17, 07:15:07,VALID,917.525,VALID,0.0,VALID,99.918,VALID,134.998,VALID,20.904,VALID,289.0,VALID,0.0,
2019-10-17, 07:16:07,VALID,917.528,VALID,0.0,VALID,99.918,VALID,117.897,VALID,20.866,VALID,287.0,VALID,0.0,
2019-10-17, 07:17:07,VALID,917.531,VALID,0.0,VALID,99.922,VALID,102.87,VALID,20.813,INVALID,360.0,VALID,0.0,
2019-10-17, 07:18:07,VALID,917.536,VALID,0.0,VALID,99.922,VALID,95.381,VALID,20.847,INVALID,360.0,VALID,0.0,
2019-10-17, 07:19:07,VALID,917.524,VALID,0.0,VALID,99.92,VALID,91.255,VALID,20.925,INVALID,360.0,VALID,0.0,
2019-10-17, 07:20:07,VALID,917.523,VALID,0.0,VALID,99.924,VALID,88.078,VALID,21.021,INVALID,360.0,VALID,0.0,
2019-10-17, 07:21:07,VALID,917.507,VALID,0.0,VALID,99.921,VALID,84.61,VALID,21.081,INVALID,360.0,VALID,0.0,
2019-10-17, 07:22:07,VALID,917.529,VALID,0.0,VALID,99.919,VALID,84.503,VALID,21.102,INVALID,360.0,VALID,0.0,
2019-10-17, 07:23:07,VALID,917.526,VALID,0.0,VALID,99.923,VALID,83.229,VALID,21.099,INVALID,360.0,VALID,0.0,
2019-10-17, 07:24:07,VALID,917.515,VALID,0.0,VALID,99.922,VALID,80.511,VALID,20.995,INVALID,360.0,VALID,0.0,
2019-10-17, 07:25:07,VALID,917.525,VALID,0.0,VALID,99.921,VALID,79.69,VALID,20.999,INVALID,360.0,VALID,0.0,
2019-10-17, 07:26:07,VALID,917.537,VALID,0.0,VALID,99.92,VALID,81.769,VALID,20.921,VALID,265.0,VALID,0.0,
2019-10-17, 07:27:07,VALID,917.567,VALID,0.0,VALID,99.921,VALID,82.761,VALID,20.789,INVALID,360.0,VALID,0.0,
2019-10-17, 07:28:07,VALID,917.576,VALID,0.0,VALID,99.92,VALID,82.998,VALID,20.712,INVALID,360.0,VALID,0.0,
2019-10-17, 07:29:07,VALID,917.602,VALID,0.0,VALID,99.919,VALID,85.153,VALID,20.839,INVALID,360.0,VALID,0.0,
2019-10-17, 07:30:07,VALID,917.629,VALID,0.0,VALID,99.921,VALID,87.542,VALID,21.015,VALID,335.0,VALID,0.0,
2019-10-17, 07:31:07,VALID,917.651,VALID,0.0,VALID,99.92,VALID,90.112,VALID,21.03,VALID,343.0,VALID,0.0,
2019-10-17, 07:32:07,VALID,917.667,VALID,0.0,VALID,99.919,VALID,93.412,VALID,21.086,VALID,8.0,VALID,0.0,
2019-10-17, 07:33:07,VALID,917.668,VALID,0.0,VALID,99.919,VALID,93.893,VALID,21.092,VALID,9.0,VALID,0.0,
2019-10-17, 07:34:07,VALID,917.682,VALID,0.0,VALID,99.922,VALID,97.171,VALID,21.048,VALID,1.0,VALID,0.0,
2019-10-17, 07:35:07,VALID,917.686,VALID,0.0,VALID,99.919,VALID,101.898,VALID,21.002,VALID,326.0,VALID,0.0,
2019-10-17, 07:36:07,VALID,917.677,VALID,0.0,VALID,99.922,VALID,107.048,VALID,20.976,VALID,332.0,VALID,0.0,
2019-10-17, 07:37:07,VALID,917.681,VALID,0.0,VALID,99.919,VALID,112.528,VALID,20.975,VALID,320.0,VALID,0.0,
2019-10-17, 07:38:07,VALID,917.657,VALID,0.0,VALID,99.919,VALID,113.77,VALID,20.964,VALID,320.0,VALID,0.0,
2019-10-17, 07:39:07,VALID,917.66,VALID,0.0,VALID,99.919,VALID,114.792,VALID,20.952,VALID,320.0,VALID,0.0,
2019-10-17, 07:40:07,VALID,917.66,VALID,0.0,VALID,99.923,VALID,118.623,VALID,21.062,VALID,337.0,VALID,0.0,
2019-10-17, 07:41:07,VALID,917.673,VALID,0.0,VALID,99.924,VALID,124.966,VALID,21.083,VALID,22.0,VALID,0.0,
2019-10-17, 07:42:07,VALID,917.69,VALID,0.0,VALID,99.923,VALID,133.196,VALID,21.097,VALID,37.0,VALID,0.0,
2019-10-17, 07:43:07,VALID,917.701,VALID,0.0,VALID,99.925,VALID,142.727,VALID,21.044,VALID,53.0,VALID,0.0,
2019-10-17, 07:44:07,VALID,917.688,VALID,0.0,VALID,99.924,VALID,149.455,VALID,21.134,VALID,54.0,VALID,0.0,
2019-10-17, 07:45:07,VALID,917.663,VALID,0.0,VALID,99.922,VALID,149.86,VALID,21.162,VALID,54.0,VALID,0.0,
2019-10-17, 07:46:07,VALID,917.645,VALID,0.0,VALID,99.921,VALID,151.87,VALID,21.174,VALID,54.0,VALID,0.0,
2019-10-17, 07:47:07,VALID,917.614,VALID,0.0,VALID,99.922,VALID,151.096,VALID,21.012,VALID,54.0,VALID,0.0,
2019-10-17, 07:48:07,VALID,917.603,VALID,0.0,VALID,99.923,VALID,146.238,VALID,20.954,VALID,54.0,VALID,0.0,
2019-10-17, 07:49:07,VALID,917.587,VALID,0.0,VALID,99.925,VALID,136.009,VALID,20.965,VALID,54.0,VALID,0.0,
2019-10-17, 07:50:07,VALID,917.587,VALID,0.0,VALID,99.921,VALID,129.071,VALID,21.057,VALID,54.0,VALID,0.0,
2019-10-17, 07:51:07,VALID,917.583,VALID,0.0,VALID,99.924,VALID,124.5,VALID,21.107,VALID,58.0,VALID,0.0,
2019-10-17, 07:52:07,VALID,917.587,VALID,0.0,VALID,99.922,VALID,118.935,VALID,21.197,VALID,68.0,VALID,0.0,
2019-10-17, 07:53:07,VALID,917.587,VALID,0.0,VALID,99.901,VALID,116.173,VALID,21.186,VALID,152.0,VALID,0.0,
2019-10-17, 07:54:07,VALID,917.594,VALID,0.0,VALID,99.716,VALID,112.458,VALID,21.087,VALID,133.0,VALID,0.0,
2019-10-17, 07:55:07,VALID,917.606,VALID,0.0,VALID,99.723,VALID,107.126,VALID,21.124,VALID,90.0,VALID,0.0,
2019-10-17, 07:56:07,VALID,917.615,VALID,0.0,VALID,99.637,VALID,103.697,VALID,21.084,INVALID,360.0,VALID,0.0,
2019-10-17, 07:57:07,VALID,917.664,VALID,0.0,VALID,99.559,VALID,103.665,VALID,21.064,VALID,129.0,VALID,0.0,
2019-10-17, 07:58:07,VALID,917.686,VALID,0.0,VALID,99.473,VALID,115.437,VALID,21.072,VALID,129.0,VALID,0.0,
2019-10-17, 07:59:07,VALID,917.73,VALID,0.0,VALID,99.319,VALID,134.659,VALID,21.057,VALID,127.0,VALID,0.0,
2019-10-17, 08:00:07,VALID,917.741,VALID,0.0,VALID,99.3,VALID,140.368,VALID,21.045,VALID,110.0,VALID,0.0,
2019-10-17, 08:01:07,VALID,917.77,VALID,0.0,VALID,99.325,VALID,137.362,VALID,21.094,VALID,110.0,VALID,0.0,
2019-10-17, 08:02:07,VALID,917.755,VALID,0.0,VALID,99.332,VALID,141.875,VALID,21.134,VALID,159.0,VALID,0.0,
2019-10-17, 08:03:07,VALID,917.764,VALID,0.0,VALID,99.159,VALID,154.425,VALID,21.118,VALID,160.0,VALID,0.0,
2019-10-17, 08:04:07,VALID,917.776,VALID,0.0,VALID,99.307,VALID,168.65,VALID,21.247,VALID,155.0,VALID,0.0,
2019-10-17, 08:05:07,VALID,917.762,VALID,0.0,VALID,99.306,VALID,168.284,VALID,21.335,VALID,127.0,VALID,0.0,
2019-10-17, 08:06:07,VALID,917.756,VALID,0.0,VALID,99.241,VALID,157.489,VALID,21.389,VALID,127.0,VALID,0.0,
2019-10-17, 08:07:07,VALID,917.769,VALID,0.0,VALID,98.762,VALID,157.248,VALID,21.282,VALID,124.0,VALID,0.0,
2019-10-17, 08:08:07,VALID,917.768,VALID,0.0,VALID,98.298,VALID,161.992,VALID,21.187,VALID,119.0,VALID,0.0,
2019-10-17, 08:09:07,VALID,917.775,VALID,0.0,VALID,98.205,VALID,170.711,VALID,21.229,VALID,127.0,VALID,0.0,
2019-10-17, 08:10:07,VALID,917.783,VALID,0.0,VALID,98.514,VALID,189.935,VALID,21.359,VALID,109.0,VALID,0.0,
2019-10-17, 08:11:07,VALID,917.795,VALID,0.0,VALID,98.292,VALID,222.912,VALID,21.364,VALID,115.0,VALID,0.0,
2019-10-17, 08:12:07,VALID,917.818,VALID,0.0,VALID,97.795,VALID,234.43,VALID,21.326,VALID,128.0,VALID,0.0,
2019-10-17, 08:13:07,VALID,917.858,VALID,0.0,VALID,97.692,VALID,229.002,VALID,21.372,INVALID,360.0,VALID,0.0,
2019-10-17, 08:14:07,VALID,917.872,VALID,0.0,VALID,97.133,VALID,227.083,VALID,21.343,INVALID,360.0,VALID,0.0,
2019-10-17, 08:15:07,VALID,917.894,VALID,0.0,VALID,97.267,VALID,229.465,VALID,21.372,INVALID,360.0,VALID,0.0,
2019-10-17, 08:16:07,VALID,917.887,VALID,0.0,VALID,97.513,VALID,244.109,VALID,21.48,VALID,130.0,VALID,0.0,
2019-10-17, 08:17:07,VALID,917.911,VALID,0.0,VALID,97.638,VALID,268.774,VALID,21.602,VALID,128.0,VALID,0.0,
2019-10-17, 08:18:07,VALID,917.924,VALID,0.0,VALID,97.195,VALID,274.621,VALID,21.675,VALID,130.0,VALID,0.0,
2019-10-17, 08:19:07,VALID,917.936,VALID,0.0,VALID,97.371,VALID,271.581,VALID,21.828,VALID,195.0,VALID,0.0,
2019-10-17, 08:20:07,VALID,917.964,VALID,0.0,VALID,96.611,VALID,255.137,VALID,21.82,VALID,295.0,VALID,0.0,
2019-10-17, 08:21:07,VALID,917.974,VALID,0.0,VALID,97.215,VALID,259.409,VALID,21.892,VALID,311.0,VALID,0.0,
2019-10-17, 08:22:07,VALID,917.989,VALID,0.0,VALID,96.58,VALID,276.554,VALID,21.864,INVALID,360.0,VALID,0.0,
2019-10-17, 08:23:07,VALID,918.019,VALID,0.0,VALID,97.029,VALID,284.699,VALID,21.944,INVALID,360.0,VALID,0.0,
2019-10-17, 08:24:07,VALID,918.05,VALID,0.0,VALID,97.09,VALID,300.287,VALID,22.0,VALID,295.0,VALID,0.0,
2019-10-17, 08:25:07,VALID,918.074,VALID,0.0,VALID,96.68,VALID,345.462,VALID,22.085,VALID,297.0,VALID,0.0,
2019-10-17, 08:26:07,VALID,918.087,VALID,0.0,VALID,96.527,VALID,284.823,VALID,22.168,INVALID,360.0,VALID,0.0,
2019-10-17, 08:27:06,VALID,918.092,VALID,0.0,VALID,95.1,VALID,272.986,VALID,22.078,INVALID,360.0,VALID,0.0,
2019-10-17, 08:28:06,VALID,918.096,VALID,0.0,VALID,95.399,VALID,280.796,VALID,22.057,INVALID,360.0,VALID,0.0,
2019-10-17, 08:29:06,VALID,918.138,VALID,0.0,VALID,96.019,VALID,288.957,VALID,22.166,VALID,320.0,VALID,0.0,
2019-10-17, 08:30:06,VALID,918.117,VALID,0.0,VALID,95.913,VALID,264.831,VALID,22.276,VALID,290.0,VALID,0.0,
2019-10-17, 08:31:06,VALID,918.115,VALID,0.0,VALID,95.094,VALID,263.837,VALID,22.323,VALID,293.0,VALID,0.0,
2019-10-17, 08:32:06,VALID,918.115,VALID,0.0,VALID,96.058,VALID,289.617,VALID,22.517,VALID,8.0,VALID,0.0,
2019-10-17, 08:33:06,VALID,918.123,VALID,0.0,VALID,94.606,VALID,310.652,VALID,22.577,VALID,330.0,VALID,0.0,
2019-10-17, 08:34:06,VALID,918.13,VALID,0.0,VALID,93.751,VALID,283.648,VALID,22.606,VALID,7.0,VALID,0.091,
2019-10-17, 08:35:06,VALID,918.146,VALID,0.0,VALID,93.901,VALID,267.998,VALID,22.602,VALID,20.0,VALID,0.912,
2019-10-17, 08:36:06,VALID,918.171,VALID,0.0,VALID,94.149,VALID,249.829,VALID,22.651,VALID,330.0,VALID,0.945,
2019-10-17, 08:37:06,VALID,918.168,VALID,0.0,VALID,92.364,VALID,240.066,VALID,22.595,VALID,263.0,VALID,0.527,
2019-10-17, 08:38:06,VALID,918.175,VALID,0.0,VALID,91.877,VALID,254.938,VALID,22.51,VALID,253.0,VALID,0.23,
2019-10-17, 08:39:06,VALID,918.197,VALID,0.0,VALID,92.824,VALID,264.653,VALID,22.54,VALID,338.0,VALID,0.321,
2019-10-17, 08:40:06,VALID,918.215,VALID,0.0,VALID,93.392,VALID,276.792,VALID,22.615,VALID,338.0,VALID,0.389,
2019-10-17, 08:41:06,VALID,918.225,VALID,0.0,VALID,93.691,VALID,294.103,VALID,22.709,VALID,3.0,VALID,0.211,
2019-10-17, 08:42:06,VALID,918.216,VALID,0.0,VALID,93.488,VALID,307.058,VALID,22.822,VALID,19.0,VALID,0.462,
2019-10-17, 08:43:06,VALID,918.214,VALID,0.0,VALID,92.558,VALID,300.018,VALID,22.845,VALID,5.0,VALID,0.451,
2019-10-17, 08:44:06,VALID,918.195,VALID,0.0,VALID,93.768,VALID,312.923,VALID,22.909,VALID,16.0,VALID,0.506,
2019-10-17, 08:45:06,VALID,918.196,VALID,0.0,VALID,94.466,VALID,345.564,VALID,23.11,VALID,311.0,VALID,0.054,
2019-10-17, 08:46:06,VALID,918.175,VALID,0.0,VALID,90.824,VALID,358.523,VALID,23.226,INVALID,360.0,VALID,0.0,
2019-10-17, 08:47:06,VALID,918.182,VALID,0.0,VALID,90.461,VALID,344.068,VALID,23.482,VALID,304.0,VALID,0.0,
2019-10-17, 08:48:06,VALID,918.189,VALID,0.0,VALID,88.618,VALID,328.462,VALID,23.584,VALID,197.0,VALID,0.0,
2019-10-17, 08:49:06,VALID,918.202,VALID,0.0,VALID,88.655,VALID,395.815,VALID,23.501,VALID,242.0,VALID,0.0,
2019-10-17, 08:50:06,VALID,918.199,VALID,0.0,VALID,89.475,VALID,458.968,VALID,23.391,INVALID,360.0,VALID,0.0,
2019-10-17, 08:51:06,VALID,918.203,VALID,0.0,VALID,88.381,VALID,477.716,VALID,23.216,INVALID,360.0,VALID,0.0,
2019-10-17, 08:52:06,VALID,918.213,VALID,0.0,VALID,90.016,VALID,425.949,VALID,23.048,INVALID,360.0,VALID,0.0,
2019-10-17, 08:53:06,VALID,918.229,VALID,0.0,VALID,91.046,VALID,357.415,VALID,23.041,INVALID,360.0,VALID,0.059,
2019-10-17, 08:54:06,VALID,918.236,VALID,0.0,VALID,91.019,VALID,325.592,VALID,23.08,VALID,286.0,VALID,0.304,
2019-10-17, 08:55:06,VALID,918.238,VALID,0.0,VALID,91.877,VALID,321.066,VALID,23.157,VALID,289.0,VALID,0.348,
2019-10-17, 08:56:06,VALID,918.248,VALID,0.0,VALID,92.094,VALID,354.747,VALID,23.256,VALID,332.0,VALID,0.293,
2019-10-17, 08:57:06,VALID,918.252,VALID,0.0,VALID,91.608,VALID,390.565,VALID,23.449,VALID,348.0,VALID,0.301,
2019-10-17, 08:58:06,VALID,918.243,VALID,0.0,VALID,89.246,VALID,432.57,VALID,23.58,VALID,358.0,VALID,0.377,
2019-10-17, 08:59:06,VALID,918.241,VALID,0.0,VALID,88.506,VALID,416.765,VALID,23.517,VALID,318.0,VALID,0.381,
2019-10-17, 09:00:06,VALID,918.248,VALID,0.0,VALID,87.912,VALID,356.915,VALID,23.519,INVALID,360.0,VALID,0.189,
2019-10-17, 09:01:06,VALID,918.278,VALID,0.0,VALID,89.121,VALID,337.291,VALID,23.664,VALID,299.0,VALID,0.182,
2019-10-17, 09:02:06,VALID,918.267,VALID,0.0,VALID,88.845,VALID,370.456,VALID,23.816,VALID,277.0,VALID,0.015,
2019-10-17, 09:03:06,VALID,918.287,VALID,0.0,VALID,87.798,VALID,413.434,VALID,23.997,VALID,271.0,VALID,0.0,
2019-10-17, 09:04:06,VALID,918.282,VALID,0.0,VALID,85.56,VALID,406.841,VALID,24.05,INVALID,360.0,VALID,0.0,
2019-10-17, 09:05:06,VALID,918.27,VALID,0.0,VALID,86.596,VALID,412.699,VALID,24.094,INVALID,360.0,VALID,0.0,
2019-10-17, 09:06:06,VALID,918.27,VALID,0.0,VALID,87.213,VALID,441.587,VALID,24.107,INVALID,360.0,VALID,0.0,
2019-10-17, 09:07:06,VALID,918.283,VALID,0.0,VALID,87.176,VALID,413.275,VALID,24.106,INVALID,360.0,VALID,0.0,
2019-10-17, 09:08:06,VALID,918.3,VALID,0.0,VALID,85.955,VALID,345.875,VALID,24.08,VALID,275.0,VALID,0.0,
2019-10-17, 09:09:06,VALID,918.306,VALID,0.0,VALID,84.677,VALID,318.383,VALID,24.039,INVALID,360.0,VALID,0.0,
2019-10-17, 09:10:06,VALID,918.302,VALID,0.0,VALID,86.024,VALID,311.963,VALID,23.968,INVALID,360.0,VALID,0.0,
2019-10-17, 09:11:06,VALID,918.32,VALID,0.0,VALID,85.651,VALID,331.359,VALID,23.869,VALID,247.0,VALID,0.0,
2019-10-17, 09:12:06,VALID,918.312,VALID,0.0,VALID,84.356,VALID,422.32,VALID,23.861,VALID,276.0,VALID,0.0,
2019-10-17, 09:13:06,VALID,918.302,VALID,0.0,VALID,83.918,VALID,386.247,VALID,23.951,VALID,243.0,VALID,0.0,
2019-10-17, 09:14:06,VALID,918.293,VALID,0.0,VALID,84.662,VALID,369.567,VALID,23.914,VALID,230.0,VALID,0.0,
2019-10-17, 09:15:06,VALID,918.308,VALID,0.0,VALID,83.922,VALID,381.983,VALID,23.823,VALID,248.0,VALID,0.0,
2019-10-17, 09:16:06,VALID,918.315,VALID,0.0,VALID,83.918,VALID,376.803,VALID,23.759,VALID,232.0,VALID,0.0,
2019-10-17, 09:17:06,VALID,918.307,VALID,0.0,VALID,84.634,VALID,500.741,VALID,23.726,VALID,240.0,VALID,0.0,
2019-10-17, 09:18:06,VALID,918.301,VALID,0.0,VALID,85.762,VALID,556.44,VALID,23.915,VALID,270.0,VALID,0.0,
2019-10-17, 09:19:06,VALID,918.274,VALID,0.0,VALID,85.434,VALID,575.176,VALID,24.165,VALID,274.0,VALID,0.0,
2019-10-17, 09:20:06,VALID,918.282,VALID,0.0,VALID,85.485,VALID,539.967,VALID,24.44,VALID,217.0,VALID,0.0,
2019-10-17, 09:21:06,VALID,918.281,VALID,0.0,VALID,84.718,VALID,621.126,VALID,24.674,VALID,276.0,VALID,0.0,
2019-10-17, 09:22:06,VALID,918.284,VALID,0.0,VALID,84.516,VALID,646.203,VALID,24.782,VALID,210.0,VALID,0.457,
2019-10-17, 09:23:06,VALID,918.288,VALID,0.0,VALID,83.92,VALID,645.858,VALID,24.815,VALID,225.0,VALID,0.249,
2019-10-17, 09:24:06,VALID,918.288,VALID,0.0,VALID,83.618,VALID,649.411,VALID,24.816,VALID,238.0,VALID,0.513,
2019-10-17, 09:25:06,VALID,918.27,VALID,0.0,VALID,83.348,VALID,640.474,VALID,24.756,VALID,272.0,VALID,0.585,
2019-10-17, 09:26:06,VALID,918.261,VALID,0.0,VALID,85.423,VALID,637.631,VALID,24.853,VALID,273.0,VALID,0.147,
2019-10-17, 09:27:06,VALID,918.274,VALID,0.0,VALID,83.995,VALID,610.226,VALID,25.037,VALID,260.0,VALID,0.494,
2019-10-17, 09:28:06,VALID,918.287,VALID,0.0,VALID,84.854,VALID,611.517,VALID,25.156,VALID,258.0,VALID,0.329,
2019-10-17, 09:29:06,VALID,918.297,VALID,0.0,VALID,82.151,VALID,576.851,VALID,25.117,VALID,219.0,VALID,0.309,
2019-10-17, 09:30:06,VALID,918.297,VALID,0.0,VALID,83.951,VALID,391.213,VALID,25.085,VALID,307.0,VALID,0.476,
2019-10-17, 09:31:06,VALID,918.307,VALID,0.0,VALID,84.394,VALID,329.407,VALID,25.235,VALID,307.0,VALID,0.366,
2019-10-17, 09:32:06,VALID,918.336,VALID,0.0,VALID,81.78,VALID,296.008,VALID,25.089,VALID,238.0,VALID,0.66,
2019-10-17, 09:33:06,VALID,918.337,VALID,0.0,VALID,83.604,VALID,299.269,VALID,24.802,VALID,147.0,VALID,0.329,
2019-10-17, 09:34:06,VALID,918.358,VALID,0.0,VALID,84.343,VALID,347.747,VALID,24.579,VALID,244.0,VALID,0.956,
2019-10-17, 09:35:06,VALID,918.372,VALID,0.0,VALID,85.628,VALID,443.284,VALID,24.305,INVALID,360.0,VALID,0.132,
2019-10-17, 09:36:06,VALID,918.367,VALID,0.0,VALID,85.441,VALID,503.68,VALID,24.296,INVALID,360.0,VALID,0.418,
2019-10-17, 09:37:06,VALID,918.393,VALID,0.0,VALID,86.386,VALID,463.411,VALID,24.184,VALID,261.0,VALID,0.791,
2019-10-17, 09:38:06,VALID,918.401,VALID,0.0,VALID,87.238,VALID,391.326,VALID,24.056,VALID,277.0,VALID,0.809,
2019-10-17, 09:39:06,VALID,918.418,VALID,0.0,VALID,87.171,VALID,414.874,VALID,23.949,VALID,269.0,VALID,0.932,
2019-10-17, 09:40:06,VALID,918.425,VALID,0.0,VALID,88.498,VALID,495.367,VALID,23.863,VALID,269.0,VALID,0.603,
2019-10-17, 09:41:06,VALID,918.415,VALID,0.0,VALID,88.138,VALID,419.665,VALID,23.825,VALID,249.0,VALID,0.723,
2019-10-17, 09:42:06,VALID,918.419,VALID,0.0,VALID,89.888,VALID,374.18,VALID,23.9,INVALID,360.0,VALID,0.087,
2019-10-17, 09:43:06,VALID,918.417,VALID,0.0,VALID,88.991,VALID,292.721,VALID,24.075,INVALID,360.0,VALID,0.002,
2019-10-17, 09:44:06,VALID,918.422,VALID,0.0,VALID,88.893,VALID,276.742,VALID,24.186,INVALID,360.0,VALID,0.055,
2019-10-17, 09:45:06,VALID,918.433,VALID,0.0,VALID,86.772,VALID,295.664,VALID,24.143,VALID,181.0,VALID,0.267,
2019-10-17, 09:46:06,VALID,918.424,VALID,0.0,VALID,88.451,VALID,328.149,VALID,24.15,VALID,290.0,VALID,0.331,
2019-10-17, 09:47:06,VALID,918.409,VALID,0.0,VALID,87.878,VALID,394.673,VALID,24.264,INVALID,360.0,VALID,0.165,
2019-10-17, 09:48:06,VALID,918.406,VALID,0.0,VALID,86.949,VALID,360.423,VALID,24.343,VALID,249.0,VALID,0.361,
2019-10-17, 09:49:06,VALID,918.404,VALID,0.0,VALID,88.348,VALID,360.556,VALID,24.448,INVALID,360.0,VALID,0.159,
2019-10-17, 09:50:06,VALID,918.399,VALID,0.0,VALID,85.544,VALID,404.484,VALID,24.474,VALID,241.0,VALID,0.884,
2019-10-17, 09:51:06,VALID,918.371,VALID,0.0,VALID,86.123,VALID,379.211,VALID,24.256,VALID,262.0,VALID,0.524,
2019-10-17, 09:52:06,VALID,918.353,VALID,0.0,VALID,86.759,VALID,357.487,VALID,24.193,VALID,258.0,VALID,0.641,
2019-10-17, 09:53:06,VALID,918.34,VALID,0.0,VALID,86.588,VALID,562.032,VALID,24.111,VALID,258.0,VALID,1.011,
2019-10-17, 09:54:06,VALID,918.317,VALID,0.0,VALID,87.717,VALID,664.914,VALID,24.069,VALID,258.0,VALID,0.804,
2019-10-17, 09:55:06,VALID,918.313,VALID,0.0,VALID,87.454,VALID,427.715,VALID,24.09,VALID,283.0,VALID,0.678,
2019-10-17, 09:56:06,VALID,918.294,VALID,0.0,VALID,87.374,VALID,373.281,VALID,24.153,VALID,358.0,VALID,1.042,
2019-10-17, 09:57:06,VALID,918.305,VALID,0.0,VALID,86.605,VALID,369.659,VALID,24.252,VALID,1.0,VALID,0.887,
2019-10-17, 09:58:06,VALID,918.329,VALID,0.0,VALID,86.226,VALID,389.754,VALID,24.312,VALID,347.0,VALID,0.561,
2019-10-17, 09:59:06,VALID,918.339,VALID,0.0,VALID,86.565,VALID,419.792,VALID,24.514,VALID,358.0,VALID,0.559,
2019-10-17, 10:00:06,VALID,918.341,VALID,0.0,VALID,84.62,VALID,462.606,VALID,24.744,VALID,350.0,VALID,0.692,
2019-10-17, 10:01:06,VALID,918.335,VALID,0.0,VALID,83.254,VALID,458.352,VALID,24.869,VALID,341.0,VALID,0.352,
2019-10-17, 10:02:06,VALID,918.314,VALID,0.0,VALID,83.701,VALID,459.613,VALID,25.015,VALID,12.0,VALID,0.766,
2019-10-17, 10:03:06,VALID,918.312,VALID,0.0,VALID,81.589,VALID,456.395,VALID,24.996,VALID,14.0,VALID,0.734,
2019-10-17, 10:04:06,VALID,918.303,VALID,0.0,VALID,82.288,VALID,438.003,VALID,24.891,VALID,4.0,VALID,0.893,
2019-10-17, 10:05:06,VALID,918.307,VALID,0.0,VALID,81.307,VALID,438.628,VALID,24.837,VALID,20.0,VALID,1.076,
2019-10-17, 10:06:06,VALID,918.306,VALID,0.0,VALID,82.672,VALID,386.011,VALID,24.894,VALID,38.0,VALID,0.545,
2019-10-17, 10:07:06,VALID,918.289,VALID,0.0,VALID,80.757,VALID,365.582,VALID,25.038,VALID,6.0,VALID,0.302,
2019-10-17, 10:08:06,VALID,918.272,VALID,0.0,VALID,79.106,VALID,344.144,VALID,25.174,INVALID,360.0,VALID,0.175,
2019-10-17, 10:09:06,VALID,918.256,VALID,0.0,VALID,79.657,VALID,358.138,VALID,25.293,VALID,344.0,VALID,0.621,
2019-10-17, 10:10:06,VALID,918.222,VALID,0.0,VALID,79.415,VALID,375.015,VALID,25.468,VALID,17.0,VALID,0.551,
2019-10-17, 10:11:06,VALID,918.22,VALID,0.0,VALID,78.926,VALID,392.244,VALID,25.526,VALID,355.0,VALID,0.312,
2019-10-17, 10:12:06,VALID,918.207,VALID,0.0,VALID,76.971,VALID,424.197,VALID,25.555,INVALID,360.0,VALID,0.087,
2019-10-17, 10:13:06,VALID,918.199,VALID,0.0,VALID,75.873,VALID,457.184,VALID,25.513,VALID,109.0,VALID,0.312,
2019-10-17, 10:14:06,VALID,918.213,VALID,0.0,VALID,75.162,VALID,490.04,VALID,25.495,VALID,151.0,VALID,0.13,
2019-10-17, 10:15:06,VALID,918.185,VALID,0.0,VALID,76.388,VALID,765.867,VALID,25.652,VALID,94.0,VALID,0.227,
2019-10-17, 10:16:06,VALID,918.151,VALID,0.0,VALID,74.359,VALID,771.355,VALID,25.954,INVALID,360.0,VALID,0.059,
2019-10-17, 10:17:06,VALID,918.136,VALID,0.0,VALID,73.986,VALID,590.127,VALID,26.208,INVALID,360.0,VALID,0.0,
2019-10-17, 10:18:06,VALID,918.113,VALID,0.0,VALID,74.665,VALID,458.886,VALID,26.5,VALID,318.0,VALID,0.186,
2019-10-17, 10:19:06,VALID,918.109,VALID,0.0,VALID,74.625,VALID,478.292,VALID,26.759,VALID,310.0,VALID,0.193,
2019-10-17, 10:20:06,VALID,918.083,VALID,0.0,VALID,76.225,VALID,498.673,VALID,26.851,VALID,280.0,VALID,0.258,
2019-10-17, 10:21:06,VALID,918.055,VALID,0.0,VALID,74.456,VALID,701.15,VALID,26.921,VALID,353.0,VALID,1.208,
2019-10-17, 10:22:06,VALID,918.029,VALID,0.0,VALID,72.762,VALID,768.02,VALID,26.918,VALID,350.0,VALID,0.95,
2019-10-17, 10:23:06,VALID,918.02,VALID,0.0,VALID,71.642,VALID,751.734,VALID,26.766,VALID,41.0,VALID,0.639,
2019-10-17, 10:24:06,VALID,917.982,VALID,0.0,VALID,72.106,VALID,722.255,VALID,26.458,VALID,36.0,VALID,1.702,
2019-10-17, 10:25:06,VALID,917.994,VALID,0.0,VALID,71.017,VALID,607.954,VALID,25.943,VALID,33.0,VALID,1.044,
2019-10-17, 10:26:06,VALID,917.989,VALID,0.0,VALID,72.71,VALID,778.006,VALID,25.922,VALID,41.0,VALID,0.847,
2019-10-17, 10:27:06,VALID,917.976,VALID,0.0,VALID,70.321,VALID,763.79,VALID,26.265,VALID,354.0,VALID,0.281,
2019-10-17, 10:28:06,VALID,917.965,VALID,0.0,VALID,68.943,VALID,544.083,VALID,26.592,VALID,353.0,VALID,0.581,
2019-10-17, 10:29:06,VALID,917.974,VALID,0.0,VALID,68.836,VALID,553.875,VALID,26.746,VALID,40.0,VALID,1.109,
2019-10-17, 10:30:06,VALID,917.971,VALID,0.0,VALID,70.071,VALID,745.88,VALID,26.614,VALID,46.0,VALID,1.142,
2019-10-17, 10:31:06,VALID,917.963,VALID,0.0,VALID,69.51,VALID,775.83,VALID,26.716,VALID,52.0,VALID,1.056,
2019-10-17, 10:32:06,VALID,917.96,VALID,0.0,VALID,67.607,VALID,535.699,VALID,26.933,VALID,73.0,VALID,0.725,
2019-10-17, 10:33:06,VALID,917.948,VALID,0.0,VALID,66.961,VALID,555.304,VALID,26.954,VALID,62.0,VALID,1.48,
2019-10-17, 10:34:06,VALID,917.955,VALID,0.0,VALID,64.879,VALID,509.685,VALID,26.687,VALID,64.0,VALID,0.377,
2019-10-17, 10:35:06,VALID,917.921,VALID,0.0,VALID,67.92,VALID,466.958,VALID,26.656,VALID,20.0,VALID,1.005,
2019-10-17, 10:36:06,VALID,917.927,VALID,0.0,VALID,68.448,VALID,458.647,VALID,26.599,VALID,46.0,VALID,0.86,
2019-10-17, 10:37:06,VALID,917.931,VALID,0.0,VALID,70.751,VALID,478.773,VALID,26.529,VALID,68.0,VALID,1.205,